{"data":{"norad_id":69646,"epoch":"2026-09-20T03:23:35.384928Z","epoch_age_seconds":45058,"freshness":"FRESH","line1":"1 69646U 26142A   26263.14138177  .00002681  00000+0  12217-3 0  9999","line2":"2 69646  97.4515 159.6620 0015594 127.0491 233.2174 15.21429509 14107","mean_motion":15.21429509,"eccentricity":0.0015594,"inclination_deg":97.4515,"raan_deg":159.662,"arg_perigee_deg":127.0491,"mean_anomaly_deg":233.2174,"bstar":0.00012217,"rev_number":1410,"period_min":94.647828997774,"perigee_km":490.79974412423,"apogee_km":512.25604299426,"semimajor_km":6879.6648935592,"source":"CELESTRAK","updated_at":"2026-09-20T09:00:47.719338Z"}}